| time (UTC) | temp C | wind direction | speed KPH | gust KPH | rain 1hr cm | rain 24hr cm | rain mn cm | humidity % | barometer mb |
| 20260505000137 | 17 | 227 | 6.4 | 9.7 | 0.00 | 0.00 | 0.00 | 74 | 1017.3 |
| 20260504235632 | 17 | 268 | 6.4 | 11.3 | 0.00 | 0.00 | 0.00 | 75 | 1017.3 |
| 20260504235129 | 17 | 220 | 8.0 | 17.7 | 0.00 | 0.00 | 0.00 | 76 | 1017.3 |
| 20260504234626 | 17 | 235 | 6.4 | 16.1 | 0.00 | 0.00 | 0.00 | 74 | 1017.0 |
| 20260504234124 | 18 | 243 | 1.6 | 9.7 | 0.00 | 0.00 | 0.00 | 72 | 1017.0 |
| 20260504233619 | 17 | 246 | 6.4 | 14.5 | 0.00 | 0.00 | 0.00 | 73 | 1017.0 |
| 20260504233115 | 17 | 319 | 3.2 | 14.5 | 0.00 | 0.00 | 0.00 | 74 | 1017.0 |
| 20260504232613 | 17 | 253 | 9.7 | 16.1 | 0.00 | 0.00 | 0.00 | 74 | 1017.3 |
| 20260504232110 | 18 | 269 | 9.7 | 14.5 | 0.00 | 0.00 | 0.00 | 73 | 1017.0 |
| 20260504231607 | 18 | 318 | 4.8 | 11.3 | 0.00 | 0.00 | 0.00 | 74 | 1017.0 |
| 20260504231103 | 18 | 191 | 3.2 | 12.9 | 0.00 | 0.00 | 0.00 | 71 | 1017.3 |
| 20260504230559 | 18 | 280 | 6.4 | 14.5 | 0.00 | 0.00 | 0.00 | 72 | 1017.6 |
| 20260504230058 | 18 | 251 | 4.8 | 11.3 | 0.00 | 0.00 | 0.00 | 71 | 1017.6 |
| 20260504225555 | 18 | 210 | 1.6 | 4.8 | 0.00 | 0.00 | 0.00 | 71 | 1017.3 |
| 20260504225052 | 19 | 194 | 3.2 | 4.8 | 0.00 | 0.00 | 0.00 | 68 | 1017.3 |
| 20260504224549 | 18 | 312 | 6.4 | 6.4 | 0.00 | 0.00 | 0.00 | 69 | 1017.6 |
| 20260504224046 | 18 | 284 | 4.8 | 12.9 | 0.00 | 0.00 | 0.00 | 69 | 1017.3 |
| 20260504223543 | 18 | 319 | 4.8 | 9.7 | 0.00 | 0.00 | 0.00 | 70 | 1017.6 |
| 20260504223038 | 19 | 298 | 3.2 | 9.7 | 0.00 | 0.00 | 0.00 | 68 | 1017.6 |
| 20260504222536 | 18 | 233 | 4.8 | 12.9 | 0.00 | 0.00 | 0.00 | 70 | 1017.6 |
| 20260504222033 | 18 | 223 | 8.0 | 16.1 | 0.00 | 0.00 | 0.00 | 71 | 1017.6 |
| 20260504221530 | 19 | 205 | 9.7 | 14.5 | 0.00 | 0.00 | 0.00 | 68 | 1018.0 |
| 20260504221027 | 18 | 247 | 8.0 | 14.5 | 0.00 | 0.00 | 0.00 | 69 | 1017.6 |
| 20260504220523 | 19 | 235 | 6.4 | 11.3 | 0.00 | 0.00 | 0.00 | 69 | 1017.6 |
| 20260504220021 | 19 | 243 | 3.2 | 9.7 | 0.00 | 0.00 | 0.00 | 68 | 1018.3 |
| 20260504215517 | 18 | 330 | 6.4 | 12.9 | 0.00 | 0.00 | 0.00 | 69 | 1018.0 |
| 20260504215014 | 18 | 264 | 8.0 | 14.5 | 0.00 | 0.00 | 0.00 | 68 | 1018.3 |
| 20260504214510 | 18 | 208 | 9.7 | 11.3 | 0.00 | 0.00 | 0.00 | 67 | 1018.3 |
| 20260504214006 | 18 | 317 | 4.8 | 16.1 | 0.00 | 0.00 | 0.00 | 69 | 1018.3 |
| 20260504213503 | 18 | 273 | 6.4 | 12.9 | 0.00 | 0.00 | 0.00 | 67 | 1018.3 |
| 20260504213001 | 18 | 304 | 9.7 | 16.1 | 0.00 | 0.00 | 0.00 | 68 | 1018.3 |
| 20260504212456 | 18 | 258 | 6.4 | 17.7 | 0.00 | 0.00 | 0.00 | 66 | 1018.3 |
| 20260504211954 | 18 | 314 | 4.8 | 14.5 | 0.00 | 0.00 | 0.00 | 67 | 1018.7 |
| 20260504211450 | 18 | 224 | 6.4 | 12.9 | 0.00 | 0.00 | 0.00 | 66 | 1018.3 |
| 20260504210948 | 19 | 277 | 4.8 | 14.5 | 0.00 | 0.00 | 0.00 | 64 | 1018.3 |
| 20260504210444 | 18 | 221 | 4.8 | 6.4 | 0.00 | 0.00 | 0.00 | 65 | 1018.7 |
| 20260504205941 | 18 | 275 | 8.0 | 11.3 | 0.00 | 0.00 | 0.00 | 64 | 1018.3 |
| 20260504205439 | 18 | 290 | 6.4 | 12.9 | 0.00 | 0.00 | 0.00 | 64 | 1018.3 |
| 20260504204937 | 18 | 358 | 9.7 | 14.5 | 0.00 | 0.00 | 0.00 | 66 | 1018.7 |
| 20260504204435 | 18 | 225 | 11.3 | 16.1 | 0.00 | 0.00 | 0.00 | 65 | 1018.3 |
| 20260504203934 | 18 | 266 | 6.4 | 17.7 | 0.00 | 0.00 | 0.00 | 63 | 1018.3 |
| 20260504203431 | 18 | 234 | 9.7 | 12.9 | 0.00 | 0.00 | 0.00 | 62 | 1018.7 |
| 20260504202927 | 18 | 315 | 3.2 | 12.9 | 0.00 | 0.00 | 0.00 | 65 | 1018.3 |
| 20260504202424 | 18 | 244 | 9.7 | 14.5 | 0.00 | 0.00 | 0.00 | 65 | 1018.3 |
| 20260504201920 | 18 | 306 | 6.4 | 14.5 | 0.00 | 0.00 | 0.00 | 64 | 1018.3 |
| 20260504201418 | 19 | 248 | 11.3 | 16.1 | 0.00 | 0.00 | 0.00 | 62 | 1018.3 |
| 20260504200915 | 19 | 196 | 4.8 | 12.9 | 0.00 | 0.00 | 0.00 | 61 | 1018.3 |
| 20260504200412 | 19 | 279 | 6.4 | 12.9 | 0.00 | 0.00 | 0.00 | 61 | 1018.7 |
| 20260504195908 | 19 | 285 | 4.8 | 11.3 | 0.00 | 0.00 | 0.00 | 61 | 1018.3 |
| 20260504195404 | 19 | 245 | 6.4 | 16.1 | 0.00 | 0.00 | 0.00 | 59 | 1018.3 |
| 20260504194901 | 19 | 300 | 4.8 | 11.3 | 0.00 | 0.00 | 0.00 | 61 | 1018.3 |
| 20260504194357 | 18 | 259 | 8.0 | 11.3 | 0.00 | 0.00 | 0.00 | 61 | 1018.3 |
| 20260504193853 | 19 | 221 | 6.4 | 11.3 | 0.00 | 0.00 | 0.00 | 61 | 1018.7 |
| 20260504193350 | 18 | 87 | 6.4 | 14.5 | 0.00 | 0.00 | 0.00 | 61 | 1018.3 |
| 20260504192849 | 19 | 131 | 4.8 | 11.3 | 0.00 | 0.00 | 0.00 | 62 | 1018.7 |
| 20260504192346 | 19 | 244 | 9.7 | 12.9 | 0.00 | 0.00 | 0.00 | 62 | 1018.7 |
| 20260504191844 | 19 | 213 | 6.4 | 11.3 | 0.00 | 0.00 | 0.00 | 64 | 1018.7 |
| 20260504191342 | 19 | 224 | 6.4 | 12.9 | 0.00 | 0.00 | 0.00 | 63 | 1018.3 |
| 20260504190837 | 19 | 324 | 4.8 | 11.3 | 0.00 | 0.00 | 0.00 | 62 | 1018.3 |
| 20260504190333 | 18 | 258 | 3.2 | 6.4 | 0.00 | 0.00 | 0.00 | 63 | 1018.7 |
| 20260504185830 | 18 | 314 | 6.4 | 12.9 | 0.00 | 0.00 | 0.00 | 64 | 1018.3 |
| 20260504185327 | 18 | 297 | 3.2 | 11.3 | 0.00 | 0.00 | 0.00 | 64 | 1018.7 |
| 20260504184823 | 18 | 230 | 3.2 | 9.7 | 0.00 | 0.00 | 0.00 | 61 | 1018.3 |
| 20260504184319 | 18 | 266 | 11.3 | 14.5 | 0.00 | 0.00 | 0.00 | 66 | 1018.7 |
| 20260504183815 | 18 | 285 | 8.0 | 14.5 | 0.00 | 0.00 | 0.00 | 66 | 1018.7 |
| 20260504183313 | 18 | 239 | 6.4 | 14.5 | 0.00 | 0.00 | 0.00 | 64 | 1018.7 |
| 20260504182810 | 18 | 271 | 9.7 | 12.9 | 0.00 | 0.00 | 0.00 | 63 | 1018.7 |
| 20260504182308 | 18 | 260 | 3.2 | 11.3 | 0.00 | 0.00 | 0.00 | 63 | 1018.7 |
| 20260504181805 | 18 | 321 | 8.0 | 14.5 | 0.00 | 0.00 | 0.00 | 64 | 1018.7 |
| 20260504181302 | 18 | 315 | 4.8 | 17.7 | 0.00 | 0.00 | 0.00 | 63 | 1018.7 |
| 20260504180801 | 19 | 256 | 6.4 | 16.1 | 0.00 | 0.00 | 0.00 | 60 | 1018.7 |
| 20260504180259 | 18 | 93 | 3.2 | 14.5 | 0.00 | 0.00 | 0.00 | 63 | 1018.7 |
| 20260504175757 | 18 | 214 | 4.8 | 16.1 | 0.00 | 0.00 | 0.00 | 65 | 1018.7 |
| 20260504175253 | 17 | 188 | 4.8 | 12.9 | 0.00 | 0.00 | 0.00 | 65 | 1018.3 |
| 20260504174751 | 17 | 225 | 6.4 | 11.3 | 0.00 | 0.00 | 0.00 | 65 | 1018.7 |
| 20260504174249 | 17 | 315 | 4.8 | 16.1 | 0.00 | 0.00 | 0.00 | 65 | 1018.7 |
| 20260504173745 | 17 | 228 | 9.7 | 12.9 | 0.00 | 0.00 | 0.00 | 66 | 1018.7 |
| 20260504173242 | 17 | 282 | 9.7 | 16.1 | 0.00 | 0.00 | 0.00 | 65 | 1018.7 |
| 20260504172739 | 17 | 292 | 3.2 | 12.9 | 0.00 | 0.00 | 0.00 | 66 | 1018.3 |
| 20260504172236 | 18 | 257 | 6.4 | 12.9 | 0.00 | 0.00 | 0.00 | 66 | 1018.7 |
| 20260504171732 | 18 | 232 | 4.8 | 14.5 | 0.00 | 0.00 | 0.00 | 64 | 1018.7 |
| 20260504171229 | 18 | 11 | 1.6 | 11.3 | 0.00 | 0.00 | 0.00 | 63 | 1018.3 |
| 20260504170726 | 18 | 241 | 3.2 | 11.3 | 0.00 | 0.00 | 0.00 | 65 | 1018.3 |
| 20260504170223 | 18 | 321 | 6.4 | 12.9 | 0.00 | 0.00 | 0.00 | 65 | 1018.0 |
| 20260504160141 | 17 | 203 | 1.6 | 6.4 | 0.00 | 0.00 | 0.00 | 66 | 1017.6 |
| 20260504151109 | 17 | 193 | 0.0 | 3.2 | 0.00 | 0.00 | 0.00 | 66 | 1017.6 |
| 20260504150606 | 17 | 315 | 1.6 | 1.6 | 0.00 | 0.00 | 0.00 | 64 | 1017.6 |
| 20260504150103 | 18 | 347 | 0.0 | 1.6 | 0.00 | 0.00 | 0.00 | 65 | 1017.6 |
| 20260504141032 | 14 | 338 | 0.0 | 0.0 | 0.00 | 0.00 | 0.00 | 80 | 1017.6 |
| 20260504140528 | 14 | 323 | 0.0 | 3.2 | 0.00 | 0.00 | 0.00 | 80 | 1017.6 |
| 20260504130453 | 14 | 332 | 0.0 | 0.0 | 0.00 | 0.00 | 0.00 | 82 | 1017.0 |
| 20260504110340 | 14 | 333 | 0.0 | 0.0 | 0.00 | 0.00 | 0.00 | 84 | 1017.0 |
| 20260504100257 | 13 | 342 | 0.0 | 0.0 | 0.00 | 0.00 | 0.00 | 87 | 1017.0 |
| 20260504081651 | 15 | 328 | 1.6 | 4.8 | 0.00 | 0.00 | 0.00 | 82 | 1018.0 |
| 20260504081147 | 15 | 297 | 1.6 | 1.6 | 0.00 | 0.00 | 0.00 | 82 | 1018.0 |
| 20260504080643 | 15 | 303 | 3.2 | 4.8 | 0.00 | 0.00 | 0.00 | 82 | 1018.0 |
| 20260504080140 | 15 | 333 | 1.6 | 1.6 | 0.00 | 0.00 | 0.00 | 82 | 1018.0 |
| 20260504070108 | 15 | 337 | 1.6 | 3.2 | 0.00 | 0.00 | 0.00 | 79 | 1018.0 |
| 20260504050456 | 15 | 292 | 3.2 | 3.2 | 0.00 | 0.00 | 0.00 | 74 | 1017.6 |
| 20260504045953 | 15 | 255 | 3.2 | 4.8 | 0.00 | 0.00 | 0.00 | 73 | 1017.3 |
| 20260504045449 | 15 | 334 | 0.0 | 3.2 | 0.00 | 0.00 | 0.00 | 73 | 1017.3 |
| 20260504044945 | 15 | 332 | 0.0 | 4.8 | 0.00 | 0.00 | 0.00 | 73 | 1017.3 |
| 20260504044443 | 15 | 330 | 1.6 | 3.2 | 0.00 | 0.00 | 0.00 | 74 | 1017.3 |
| 20260504043940 | 15 | 328 | 0.0 | 1.6 | 0.00 | 0.00 | 0.00 | 74 | 1017.3 |
| 20260504043437 | 15 | 314 | 1.6 | 3.2 | 0.00 | 0.00 | 0.00 | 74 | 1017.3 |
| 20260504042935 | 15 | 257 | 4.8 | 6.4 | 0.00 | 0.00 | 0.00 | 74 | 1017.3 |
| 20260504042431 | 15 | 249 | 3.2 | 6.4 | 0.00 | 0.00 | 0.00 | 74 | 1017.3 |
| 20260504041928 | 15 | 290 | 4.8 | 9.7 | 0.00 | 0.00 | 0.00 | 74 | 1017.3 |
| 20260504041424 | 15 | 327 | 3.2 | 6.4 | 0.00 | 0.00 | 0.00 | 75 | 1017.0 |
| 20260504040920 | 15 | 207 | 3.2 | 6.4 | 0.00 | 0.00 | 0.00 | 76 | 1017.0 |
| 20260504040418 | 15 | 340 | 0.0 | 1.6 | 0.00 | 0.00 | 0.00 | 77 | 1017.0 |
| 20260504035914 | 15 | 194 | 6.4 | 6.4 | 0.00 | 0.00 | 0.00 | 77 | 1017.0 |
| 20260504035412 | 15 | 307 | 3.2 | 4.8 | 0.00 | 0.00 | 0.00 | 77 | 1016.6 |
| 20260504034908 | 15 | 204 | 3.2 | 4.8 | 0.00 | 0.00 | 0.00 | 78 | 1017.0 |
| 20260504034405 | 15 | 263 | 1.6 | 6.4 | 0.00 | 0.00 | 0.00 | 79 | 1016.6 |
| 20260504033902 | 15 | 257 | 4.8 | 6.4 | 0.00 | 0.00 | 0.00 | 79 | 1017.0 |
| 20260504033400 | 15 | 344 | 0.0 | 3.2 | 0.00 | 0.00 | 0.00 | 80 | 1017.0 |
| 20260504032857 | 15 | 251 | 1.6 | 3.2 | 0.00 | 0.00 | 0.00 | 80 | 1017.0 |
| 20260504032354 | 15 | 273 | 3.2 | 6.4 | 0.00 | 0.00 | 0.00 | 80 | 1016.6 |
| 20260504031850 | 15 | 289 | 3.2 | 6.4 | 0.00 | 0.00 | 0.00 | 80 | 1016.3 |
| 20260504031348 | 15 | 267 | 8.0 | 9.7 | 0.00 | 0.00 | 0.00 | 79 | 1016.3 |
| 20260504030844 | 15 | 289 | 3.2 | 6.4 | 0.00 | 0.00 | 0.00 | 78 | 1016.6 |
| 20260504030341 | 15 | 334 | 1.6 | 4.8 | 0.00 | 0.00 | 0.00 | 78 | 1016.6 |
| 20260504025837 | 15 | 324 | 4.8 | 6.4 | 0.00 | 0.00 | 0.00 | 77 | 1016.6 |
| 20260504025334 | 15 | 272 | 1.6 | 4.8 | 0.00 | 0.00 | 0.00 | 77 | 1016.3 |
| 20260504024831 | 15 | 301 | 1.6 | 9.7 | 0.00 | 0.00 | 0.00 | 77 | 1016.3 |
| 20260504024327 | 15 | 321 | 1.6 | 3.2 | 0.00 | 0.00 | 0.00 | 78 | 1016.3 |
| 20260504023824 | 15 | 261 | 6.4 | 9.7 | 0.00 | 0.00 | 0.00 | 79 | 1016.3 |
| 20260504023321 | 15 | 238 | 9.7 | 11.3 | 0.00 | 0.00 | 0.00 | 79 | 1016.3 |
| 20260504022816 | 15 | 328 | 0.0 | 9.7 | 0.00 | 0.00 | 0.00 | 79 | 1016.3 |
| 20260504022314 | 15 | 315 | 3.2 | 4.8 | 0.00 | 0.00 | 0.00 | 79 | 1016.3 |
| 20260504021810 | 15 | 197 | 8.0 | 12.9 | 0.00 | 0.00 | 0.00 | 78 | 1016.0 |
| 20260504021308 | 15 | 256 | 4.8 | 9.7 | 0.00 | 0.00 | 0.00 | 78 | 1016.0 |
| 20260504020804 | 16 | 183 | 4.8 | 6.4 | 0.00 | 0.00 | 0.00 | 77 | 1016.0 |
| 20260504020301 | 15 | 221 | 3.2 | 9.7 | 0.00 | 0.00 | 0.00 | 77 | 1016.0 |
| 20260504015757 | 16 | 261 | 4.8 | 6.4 | 0.00 | 0.00 | 0.00 | 77 | 1016.0 |
| 20260504015254 | 16 | 250 | 1.6 | 11.3 | 0.00 | 0.00 | 0.00 | 77 | 1016.0 |
| 20260504014750 | 16 | 244 | 6.4 | 11.3 | 0.00 | 0.00 | 0.00 | 76 | 1016.0 |
| 20260504014246 | 16 | 299 | 1.6 | 3.2 | 0.00 | 0.00 | 0.00 | 76 | 1016.0 |
| 20260504013744 | 16 | 329 | 1.6 | 4.8 | 0.00 | 0.00 | 0.00 | 76 | 1016.0 |
| 20260504013242 | 16 | 267 | 3.2 | 4.8 | 0.00 | 0.00 | 0.00 | 75 | 1015.6 |
| 20260504012738 | 16 | 229 | 6.4 | 9.7 | 0.00 | 0.00 | 0.00 | 75 | 1016.0 |
| 20260504012236 | 16 | 182 | 8.0 | 11.3 | 0.00 | 0.00 | 0.00 | 75 | 1016.0 |
| 20260504011732 | 16 | 334 | 1.6 | 9.7 | 0.00 | 0.00 | 0.00 | 75 | 1016.0 |
| 20260504011229 | 16 | 221 | 4.8 | 4.8 | 0.00 | 0.00 | 0.00 | 75 | 1016.0 |
| 20260504010725 | 16 | 239 | 4.8 | 6.4 | 0.00 | 0.00 | 0.00 | 74 | 1016.0 |
| 20260504010221 | 16 | 264 | 1.6 | 4.8 | 0.00 | 0.00 | 0.00 | 75 | 1016.0 |
| 20260504005718 | 16 | 216 | 6.4 | 9.7 | 0.00 | 0.00 | 0.00 | 74 | 1016.0 |
| 20260504005215 | 17 | 319 | 3.2 | 4.8 | 0.00 | 0.00 | 0.00 | 73 | 1016.0 |
| 20260504004713 | 16 | 309 | 1.6 | 4.8 | 0.00 | 0.00 | 0.00 | 73 | 1015.6 |
| 20260504004209 | 17 | 264 | 6.4 | 9.7 | 0.00 | 0.00 | 0.00 | 72 | 1015.6 |
| 20260504003706 | 17 | 145 | 4.8 | 6.4 | 0.00 | 0.00 | 0.00 | 71 | 1015.6 |
| 20260504003203 | 17 | 312 | 6.4 | 9.7 | 0.00 | 0.00 | 0.00 | 69 | 1016.0 |
| 20260504002700 | 17 | 339 | 1.6 | 6.4 | 0.00 | 0.00 | 0.00 | 70 | 1015.6 |
| 20260504002157 | 17 | 292 | 1.6 | 4.8 | 0.00 | 0.00 | 0.00 | 70 | 1015.6 |
| 20260504001655 | 17 | 221 | 4.8 | 9.7 | 0.00 | 0.00 | 0.00 | 70 | 1015.6 |
| 20260504001151 | 17 | 238 | 3.2 | 3.2 | 0.00 | 0.00 | 0.00 | 70 | 1015.6 |
| 20260504000648 | 18 | 152 | 3.2 | 6.4 | 0.00 | 0.00 | 0.00 | 69 | 1015.3 |